Location: Brachbach
(49.1847°N, 9.7240°E)
Time: 02:35:42
(UTC+00:00)

ADEOS II - Pass Details

Date: 23 May 2024
Orbit: 796 x 798 km, 98.7° (Epoch: 19 June)

Event Time Altitude Azimuth Distance (km) Brightness Sun altitude
Rises 01:12:21 0° 20° (NNE) 3,313 7.1 -15.7°
Reaches altitude 10° 01:14:49 10° 27° (NNE) 2,378 5.9 -15.5°
Maximum altitude 01:19:48 43° 98° (E) 1,116 3.0 -15.1°
Enters shadow 01:24:19 12° 168° (SSE) 2,202 3.9 -14.7°
